QFA9DP YBSG-YPDN

Flight info

Callsign QFA9DP
Flight time 1h 43m
Altitude 36000
Route WP DCT GV J151 TUSTU DCT GATOR DCT DN
Aircraft A320/M-SDE3FGHIRWY/LB1

Departure

Time 2026-05-07 14:46
Airport RAAF Base Scherger (YBSG)

Arrival

Time 2026-05-07 16:29
Airport Darwin International Airport / RAAF Darwin (YPDN)
Time Latitude Longitude Altitude Speed Heading
2026-05-07 14:36 -12.62205 142.07702 139 ft 0 kts 154°
2026-05-07 14:40 -12.62205 142.07703 142 ft 1 kts 154°
2026-05-07 14:40 -12.62216 142.07708 139 ft 3 kts 154°
2026-05-07 14:40 -12.62235 142.07717 139 ft 7 kts 154°
2026-05-07 14:40 -12.62274 142.07759 140 ft 6 kts 84°
2026-05-07 14:41 -12.62280 142.07843 140 ft 18 kts 81°
2026-05-07 14:41 -12.62238 142.07976 140 ft 21 kts 112°
2026-05-07 14:41 -12.62315 142.08112 141 ft 23 kts 122°
2026-05-07 14:41 -12.62338 142.08207 141 ft 9 kts 36°
2026-05-07 14:42 -12.62294 142.08262 141 ft 13 kts 83°
2026-05-07 14:42 -12.62345 142.08374 142 ft 22 kts 122°
2026-05-07 14:42 -12.62442 142.08530 143 ft 28 kts 122°
2026-05-07 14:42 -12.62546 142.08705 144 ft 29 kts 121°
2026-05-07 14:43 -12.62655 142.08885 145 ft 30 kts 123°
2026-05-07 14:43 -12.62769 142.09073 146 ft 32 kts 121°
2026-05-07 14:43 -12.62886 142.09267 147 ft 32 kts 122°
2026-05-07 14:43 -12.63009 142.09465 148 ft 33 kts 123°
2026-05-07 14:44 -12.63134 142.09666 149 ft 34 kts 122°
2026-05-07 14:44 -12.63216 142.09843 150 ft 19 kts 80°
2026-05-07 14:44 -12.63110 142.09917 149 ft 20 kts 30°
2026-05-07 14:44 -12.62986 142.09946 148 ft 17 kts 306°
2026-05-07 14:45 -12.62895 142.09798 146 ft 37 kts 302°
2026-05-07 14:45 -12.62626 142.09355 148 ft 106 kts 302°
2026-05-07 14:45 -12.62131 142.08550 143 ft 159 kts 302°
2026-05-07 14:45 -12.61528 142.07547 575 ft 165 kts 303°
2026-05-07 14:46 -12.60920 142.06541 993 ft 173 kts 304°
2026-05-07 14:46 -12.60243 142.05431 1189 ft 195 kts 303°
2026-05-07 14:46 -12.59482 142.04185 1397 ft 217 kts 303°
2026-05-07 14:46 -12.58642 142.02809 1547 ft 238 kts 303°
2026-05-07 14:47 -12.57852 142.01258 1779 ft 259 kts 282°
2026-05-07 14:47 -12.57958 141.99393 2245 ft 272 kts 243°
2026-05-07 14:47 -12.59099 141.97896 3105 ft 266 kts 215°
2026-05-07 14:47 -12.60609 141.96838 4113 ft 262 kts 207°
2026-05-07 14:48 -12.62188 141.95884 5058 ft 264 kts 207°
2026-05-07 14:48 -12.63762 141.94878 5968 ft 269 kts 210°
2026-05-07 14:48 -12.65298 141.93743 6794 ft 277 kts 220°
2026-05-07 14:48 -12.66516 141.92176 7572 ft 287 kts 240°
2026-05-07 14:49 -12.67140 141.90213 8349 ft 295 kts 261°
2026-05-07 14:49 -12.67116 141.88097 9127 ft 300 kts 275°
2026-05-07 14:49 -12.66939 141.85962 9926 ft 303 kts 275°
2026-05-07 14:49 -12.66766 141.83760 10289 ft 321 kts 275°
2026-05-07 14:50 -12.66590 141.81398 10433 ft 344 kts 274°
2026-05-07 14:50 -12.66410 141.78903 10803 ft 356 kts 275°
2026-05-07 14:50 -12.66228 141.76348 11349 ft 362 kts 274°
2026-05-07 14:50 -12.66044 141.73768 11992 ft 365 kts 275°
2026-05-07 14:51 -12.65857 141.71163 12617 ft 368 kts 276°
2026-05-07 14:51 -12.65669 141.68544 13288 ft 370 kts 276°
2026-05-07 14:51 -12.65480 141.65909 13922 ft 372 kts 275°
2026-05-07 14:51 -12.65294 141.63293 14513 ft 373 kts 275°
2026-05-07 14:52 -12.65106 141.60631 15106 ft 375 kts 276°
2026-05-07 14:52 -12.64918 141.57965 15700 ft 376 kts 275°
2026-05-07 14:52 -12.64729 141.55284 16288 ft 378 kts 276°
2026-05-07 14:52 -12.64537 141.52594 16871 ft 380 kts 276°
2026-05-07 14:53 -12.64341 141.49888 17439 ft 382 kts 276°
2026-05-07 14:53 -12.64142 141.47166 18042 ft 384 kts 276°
2026-05-07 14:53 -12.63942 141.44437 18588 ft 385 kts 276°
2026-05-07 14:53 -12.63742 141.41695 19110 ft 387 kts 276°
2026-05-07 14:54 -12.63542 141.38939 19637 ft 389 kts 276°
2026-05-07 14:54 -12.63344 141.36166 20167 ft 391 kts 276°
2026-05-07 14:54 -12.63146 141.33387 20694 ft 393 kts 276°
2026-05-07 14:54 -12.62945 141.30588 21215 ft 395 kts 276°
2026-05-07 14:55 -12.62741 141.27778 21730 ft 397 kts 276°
2026-05-07 14:55 -12.62532 141.24954 22212 ft 399 kts 276°
2026-05-07 14:55 -12.62321 141.22118 22685 ft 401 kts 276°
2026-05-07 14:55 -12.62111 141.19267 23153 ft 403 kts 276°
2026-05-07 14:56 -12.61902 141.16403 23585 ft 405 kts 276°
2026-05-07 14:56 -12.61762 141.14497 23814 ft 406 kts 276°
2026-05-07 14:56 -12.61711 141.13767 23904 ft 406 kts 276°
2026-05-07 14:56 -12.61519 141.10911 24251 ft 408 kts 276°
2026-05-07 14:57 -12.61312 141.08008 24591 ft 410 kts 276°
2026-05-07 14:57 -12.61094 141.05095 24929 ft 411 kts 276°
2026-05-07 14:57 -12.60874 141.02170 25273 ft 413 kts 276°
2026-05-07 14:57 -12.60652 140.99238 25610 ft 414 kts 276°
2026-05-07 14:58 -12.60428 140.96286 25942 ft 416 kts 276°
2026-05-07 14:58 -12.60204 140.93332 26271 ft 417 kts 276°
2026-05-07 14:58 -12.59984 140.90362 26589 ft 419 kts 276°
2026-05-07 14:58 -12.59763 140.87381 26904 ft 421 kts 276°
2026-05-07 14:59 -12.59540 140.84394 27211 ft 422 kts 276°
2026-05-07 14:59 -12.59318 140.81393 27531 ft 423 kts 276°
2026-05-07 14:59 -12.59095 140.78384 27838 ft 425 kts 276°
2026-05-07 14:59 -12.58871 140.75365 28146 ft 426 kts 276°
2026-05-07 15:00 -12.58637 140.72293 28461 ft 428 kts 276°
2026-05-07 15:00 -12.58404 140.69258 28765 ft 429 kts 276°
2026-05-07 15:00 -12.58174 140.66208 29056 ft 430 kts 276°
2026-05-07 15:00 -12.57947 140.63185 29342 ft 432 kts 276°
2026-05-07 15:01 -12.57715 140.60071 29615 ft 434 kts 275°
2026-05-07 15:01 -12.57483 140.56983 29896 ft 436 kts 275°
2026-05-07 15:01 -12.57249 140.53893 30163 ft 437 kts 275°
2026-05-07 15:01 -12.57021 140.50829 30501 ft 436 kts 275°
2026-05-07 15:02 -12.56788 140.47736 30828 ft 435 kts 276°
2026-05-07 15:02 -12.56553 140.44654 31160 ft 434 kts 276°
2026-05-07 15:02 -12.56312 140.41579 31496 ft 433 kts 276°
2026-05-07 15:02 -12.56073 140.38507 31837 ft 433 kts 276°
2026-05-07 15:03 -12.55839 140.35446 32187 ft 432 kts 276°
2026-05-07 15:03 -12.55606 140.32383 32533 ft 432 kts 276°
2026-05-07 15:03 -12.55373 140.29314 32893 ft 431 kts 276°
2026-05-07 15:03 -12.55141 140.26258 33264 ft 430 kts 276°
2026-05-07 15:04 -12.54923 140.23382 33615 ft 430 kts 276°
2026-05-07 15:04 -12.54690 140.20333 33984 ft 429 kts 276°
2026-05-07 15:04 -12.54457 140.17288 34335 ft 428 kts 276°
2026-05-07 15:04 -12.54225 140.14264 34690 ft 426 kts 276°
2026-05-07 15:05 -12.53991 140.11248 35035 ft 424 kts 276°
2026-05-07 15:05 -12.53756 140.08234 35369 ft 423 kts 277°
2026-05-07 15:05 -12.53525 140.05243 35700 ft 422 kts 276°
2026-05-07 15:05 -12.53293 140.02239 35902 ft 422 kts 277°
2026-05-07 15:06 -12.52832 139.96281 35946 ft 423 kts 276°
2026-05-07 15:06 -12.52368 139.90279 35944 ft 423 kts 277°
2026-05-07 15:07 -12.51890 139.84275 35948 ft 423 kts 277°
2026-05-07 15:07 -12.51419 139.78271 35953 ft 423 kts 277°
2026-05-07 15:08 -12.50950 139.72271 35952 ft 423 kts 276°
2026-05-07 15:08 -12.50486 139.66262 35958 ft 424 kts 277°
2026-05-07 15:09 -12.50014 139.60280 35965 ft 424 kts 277°
2026-05-07 15:09 -12.49528 139.54238 35970 ft 423 kts 277°
2026-05-07 15:10 -12.49050 139.48267 35963 ft 424 kts 277°
2026-05-07 15:10 -12.48573 139.42217 35964 ft 424 kts 277°
2026-05-07 15:11 -12.48100 139.36243 35963 ft 424 kts 277°
2026-05-07 15:11 -12.47612 139.30228 35966 ft 424 kts 277°
2026-05-07 15:12 -12.47129 139.24217 35968 ft 424 kts 277°
2026-05-07 15:12 -12.46641 139.18204 35968 ft 424 kts 277°
2026-05-07 15:13 -12.46154 139.12185 35968 ft 424 kts 277°
2026-05-07 15:13 -12.45671 139.06171 35968 ft 424 kts 277°
2026-05-07 15:14 -12.45184 139.00164 35967 ft 424 kts 277°
2026-05-07 15:14 -12.44686 138.94156 35966 ft 423 kts 277°
2026-05-07 15:15 -12.44196 138.88153 35965 ft 423 kts 277°
2026-05-07 15:15 -12.43711 138.82188 35966 ft 423 kts 277°
2026-05-07 15:16 -12.43222 138.76190 35962 ft 423 kts 277°
2026-05-07 15:16 -12.42723 138.70195 35960 ft 423 kts 277°
2026-05-07 15:17 -12.42225 138.64198 35975 ft 422 kts 277°
2026-05-07 15:17 -12.41725 138.58226 35977 ft 421 kts 277°
2026-05-07 15:18 -12.41230 138.52254 35980 ft 421 kts 277°
2026-05-07 15:18 -12.40734 138.46286 35979 ft 420 kts 277°
2026-05-07 15:19 -12.40237 138.40328 35973 ft 420 kts 276°
2026-05-07 15:19 -12.39744 138.34374 35975 ft 420 kts 277°
2026-05-07 15:20 -12.39245 138.28410 35979 ft 420 kts 276°
2026-05-07 15:20 -12.38744 138.22497 35976 ft 419 kts 277°
2026-05-07 15:21 -12.38236 138.16555 35978 ft 419 kts 277°
2026-05-07 15:21 -12.37732 138.10619 35973 ft 418 kts 277°
2026-05-07 15:22 -12.37235 138.04689 35972 ft 418 kts 276°
2026-05-07 15:22 -12.36734 137.98769 35970 ft 418 kts 276°
2026-05-07 15:23 -12.36229 137.92840 35968 ft 418 kts 276°
2026-05-07 15:23 -12.35724 137.86920 35970 ft 418 kts 276°
2026-05-07 15:24 -12.35298 137.81961 35968 ft 418 kts 277°
2026-05-07 15:24 -12.34789 137.76042 35966 ft 417 kts 276°
2026-05-07 15:25 -12.34289 137.70162 35968 ft 417 kts 276°
2026-05-07 15:25 -12.33776 137.64244 35968 ft 417 kts 277°
2026-05-07 15:26 -12.33263 137.58332 35968 ft 417 kts 276°
2026-05-07 15:26 -12.32759 137.52427 35968 ft 417 kts 276°
2026-05-07 15:27 -12.32240 137.46530 35965 ft 417 kts 277°
2026-05-07 15:27 -12.31713 137.40618 35966 ft 417 kts 277°
2026-05-07 15:28 -12.31194 137.34705 35973 ft 418 kts 277°
2026-05-07 15:28 -12.30679 137.28781 35977 ft 418 kts 276°
2026-05-07 15:29 -12.30165 137.22893 35978 ft 418 kts 277°
2026-05-07 15:29 -12.29637 137.16972 35979 ft 418 kts 277°
2026-05-07 15:30 -12.29115 137.11052 35979 ft 418 kts 276°
2026-05-07 15:30 -12.28599 137.05135 35980 ft 417 kts 276°
2026-05-07 15:31 -12.28074 136.99225 35980 ft 417 kts 277°
2026-05-07 15:31 -12.27548 136.93323 35973 ft 417 kts 277°
2026-05-07 15:32 -12.27017 136.87420 35977 ft 416 kts 277°
2026-05-07 15:32 -12.26529 136.81553 35972 ft 418 kts 272°
2026-05-07 15:33 -12.26739 136.75610 35974 ft 419 kts 270°
2026-05-07 15:33 -12.26960 136.69658 35976 ft 419 kts 270°
2026-05-07 15:34 -12.27178 136.63709 35980 ft 420 kts 270°
2026-05-07 15:34 -12.27397 136.57732 35982 ft 420 kts 270°
2026-05-07 15:35 -12.27612 136.51749 35973 ft 426 kts 270°
2026-05-07 15:35 -12.27831 136.45639 35972 ft 437 kts 270°
2026-05-07 15:36 -12.28055 136.39404 35972 ft 440 kts 270°
2026-05-07 15:36 -12.28280 136.33145 35972 ft 440 kts 270°
2026-05-07 15:37 -12.28500 136.26888 35975 ft 440 kts 270°
2026-05-07 15:37 -12.28723 136.20633 35979 ft 441 kts 270°
2026-05-07 15:38 -12.28958 136.14352 35990 ft 442 kts 270°
2026-05-07 15:38 -12.29182 136.08070 36000 ft 442 kts 270°
2026-05-07 15:39 -12.29398 136.01791 36002 ft 442 kts 270°
2026-05-07 15:39 -12.29605 135.95513 36007 ft 442 kts 270°
2026-05-07 15:40 -12.29819 135.89229 36003 ft 442 kts 270°
2026-05-07 15:40 -12.30034 135.82949 36002 ft 442 kts 270°
2026-05-07 15:41 -12.30252 135.76684 35977 ft 439 kts 270°
2026-05-07 15:41 -12.30463 135.70445 35980 ft 439 kts 270°
2026-05-07 15:42 -12.30671 135.64207 35980 ft 438 kts 270°
2026-05-07 15:42 -12.30876 135.57976 35979 ft 439 kts 270°
2026-05-07 15:43 -12.31080 135.51742 35986 ft 439 kts 270°
2026-05-07 15:43 -12.31288 135.45495 35991 ft 439 kts 270°
2026-05-07 15:44 -12.31490 135.39246 35995 ft 440 kts 270°
2026-05-07 15:44 -12.31694 135.32992 36010 ft 440 kts 270°
2026-05-07 15:45 -12.31893 135.26749 36010 ft 439 kts 270°
2026-05-07 15:45 -12.32095 135.20552 36007 ft 438 kts 270°
2026-05-07 15:46 -12.32385 135.11211 35999 ft 437 kts 270°
2026-05-07 15:47 -12.32577 135.04996 35998 ft 437 kts 270°
2026-05-07 15:47 -12.32773 134.98776 36004 ft 438 kts 270°
2026-05-07 15:48 -12.32958 134.92546 36001 ft 438 kts 270°
2026-05-07 15:48 -12.33150 134.86315 36004 ft 438 kts 270°
2026-05-07 15:49 -12.33348 134.80080 36005 ft 438 kts 270°
2026-05-07 15:49 -12.33530 134.73847 36005 ft 438 kts 270°
2026-05-07 15:50 -12.33713 134.67617 36003 ft 438 kts 270°
2026-05-07 15:50 -12.33900 134.61389 36007 ft 438 kts 270°
2026-05-07 15:51 -12.34085 134.55200 36011 ft 438 kts 270°
2026-05-07 15:51 -12.34264 134.48969 36010 ft 439 kts 270°
2026-05-07 15:52 -12.34448 134.42725 36000 ft 439 kts 270°
2026-05-07 15:52 -12.34672 134.36472 36004 ft 440 kts 269°
2026-05-07 15:53 -12.35000 134.30218 36005 ft 440 kts 269°
2026-05-07 15:53 -12.35336 134.23967 36007 ft 440 kts 269°
2026-05-07 15:54 -12.35647 134.17710 36011 ft 440 kts 269°
2026-05-07 15:54 -12.35938 134.11458 36009 ft 440 kts 269°
2026-05-07 15:55 -12.36227 134.05195 36013 ft 440 kts 269°
2026-05-07 15:55 -12.36527 133.98937 36013 ft 440 kts 269°
2026-05-07 15:56 -12.36825 133.92712 36011 ft 440 kts 269°
2026-05-07 15:56 -12.37115 133.86459 36012 ft 440 kts 269°
2026-05-07 15:57 -12.37400 133.80204 36006 ft 440 kts 269°
2026-05-07 15:57 -12.37696 133.73947 36008 ft 440 kts 269°
2026-05-07 15:58 -12.37989 133.67689 36009 ft 440 kts 269°
2026-05-07 15:58 -12.38278 133.61424 36012 ft 441 kts 269°
2026-05-07 15:59 -12.38567 133.55202 36013 ft 440 kts 269°
2026-05-07 15:59 -12.38856 133.48940 36011 ft 441 kts 269°
2026-05-07 16:00 -12.39140 133.42676 35997 ft 440 kts 269°
2026-05-07 16:00 -12.39416 133.36431 35995 ft 438 kts 269°
2026-05-07 16:01 -12.39699 133.30198 35993 ft 439 kts 269°
2026-05-07 16:01 -12.39981 133.23965 35988 ft 439 kts 269°
2026-05-07 16:02 -12.40257 133.17731 35987 ft 439 kts 269°
2026-05-07 16:02 -12.40533 133.11480 35994 ft 439 kts 269°
2026-05-07 16:03 -12.40813 133.05238 35985 ft 439 kts 269°
2026-05-07 16:03 -12.41081 132.99001 35982 ft 439 kts 269°
2026-05-07 16:04 -12.41359 132.92794 35983 ft 439 kts 269°
2026-05-07 16:04 -12.41633 132.86559 35983 ft 439 kts 269°
2026-05-07 16:05 -12.41898 132.80319 35985 ft 439 kts 269°
2026-05-07 16:05 -12.42160 132.74069 35979 ft 440 kts 269°
2026-05-07 16:06 -12.42430 132.67851 35979 ft 441 kts 269°
2026-05-07 16:06 -12.42704 132.61540 35987 ft 442 kts 269°
2026-05-07 16:07 -12.42970 132.55295 35991 ft 442 kts 269°
2026-05-07 16:07 -12.43225 132.49016 35986 ft 442 kts 269°
2026-05-07 16:08 -12.43484 132.42745 35983 ft 441 kts 269°
2026-05-07 16:08 -12.43617 132.39637 35620 ft 434 kts 269°
2026-05-07 16:08 -12.43708 132.37557 35287 ft 429 kts 269°
2026-05-07 16:08 -12.43837 132.34577 35057 ft 422 kts 269°
2026-05-07 16:09 -12.43961 132.31584 34826 ft 420 kts 269°
2026-05-07 16:09 -12.44079 132.28602 34598 ft 420 kts 269°
2026-05-07 16:09 -12.44194 132.25612 34372 ft 420 kts 269°
2026-05-07 16:09 -12.44309 132.22628 34148 ft 420 kts 269°
2026-05-07 16:10 -12.44429 132.19640 33922 ft 421 kts 268°
2026-05-07 16:10 -12.44553 132.16647 33666 ft 421 kts 268°
2026-05-07 16:10 -12.44680 132.13656 33413 ft 421 kts 268°
2026-05-07 16:10 -12.44807 132.10653 33162 ft 422 kts 268°
2026-05-07 16:11 -12.44933 132.07657 32678 ft 422 kts 268°
2026-05-07 16:11 -12.45058 132.04637 31693 ft 426 kts 268°
2026-05-07 16:11 -12.45180 132.01593 30801 ft 428 kts 268°
2026-05-07 16:11 -12.45299 131.98552 30138 ft 425 kts 268°
2026-05-07 16:12 -12.45418 131.95554 29521 ft 419 kts 268°
2026-05-07 16:12 -12.45533 131.92594 28939 ft 413 kts 268°
2026-05-07 16:12 -12.45646 131.89682 28361 ft 407 kts 268°
2026-05-07 16:12 -12.45759 131.86806 27787 ft 403 kts 269°
2026-05-07 16:13 -12.45870 131.83959 27212 ft 399 kts 269°
2026-05-07 16:13 -12.45982 131.81135 26651 ft 395 kts 269°
2026-05-07 16:13 -12.46092 131.78375 26103 ft 392 kts 269°
2026-05-07 16:13 -12.46163 131.75605 25546 ft 388 kts 274°
2026-05-07 16:14 -12.45951 131.72856 24958 ft 386 kts 277°
2026-05-07 16:14 -12.45706 131.70119 24368 ft 385 kts 277°
2026-05-07 16:14 -12.45459 131.67389 23819 ft 385 kts 277°
2026-05-07 16:14 -12.45210 131.64660 23211 ft 384 kts 277°
2026-05-07 16:15 -12.44964 131.61945 22657 ft 381 kts 277°
2026-05-07 16:15 -12.44721 131.59259 22147 ft 378 kts 277°
2026-05-07 16:15 -12.44480 131.56587 21638 ft 376 kts 277°
2026-05-07 16:15 -12.44239 131.53939 21139 ft 373 kts 277°
2026-05-07 16:16 -12.43999 131.51293 20636 ft 371 kts 277°
2026-05-07 16:16 -12.43760 131.48667 20114 ft 369 kts 277°
2026-05-07 16:16 -12.43523 131.46057 19602 ft 367 kts 277°
2026-05-07 16:16 -12.43286 131.43459 19066 ft 366 kts 277°
2026-05-07 16:17 -12.43051 131.40867 18530 ft 365 kts 277°
2026-05-07 16:17 -12.42817 131.38284 17927 ft 365 kts 276°
2026-05-07 16:17 -12.42584 131.35740 17356 ft 362 kts 276°
2026-05-07 16:17 -12.42347 131.33187 16794 ft 359 kts 276°
2026-05-07 16:18 -12.42115 131.30655 16226 ft 356 kts 276°
2026-05-07 16:18 -12.41884 131.28139 15668 ft 354 kts 276°
2026-05-07 16:18 -12.41654 131.25631 15110 ft 353 kts 276°
2026-05-07 16:18 -12.41425 131.23135 14552 ft 352 kts 276°
2026-05-07 16:19 -12.41197 131.20648 13996 ft 351 kts 276°
2026-05-07 16:19 -12.40969 131.18160 13380 ft 351 kts 276°
2026-05-07 16:19 -12.40742 131.15683 12831 ft 348 kts 276°
2026-05-07 16:19 -12.40518 131.13224 12282 ft 346 kts 276°
2026-05-07 16:20 -12.40183 131.10807 11747 ft 343 kts 284°
2026-05-07 16:20 -12.39464 131.08481 11208 ft 341 kts 289°
2026-05-07 16:20 -12.38694 131.06185 10673 ft 339 kts 288°
2026-05-07 16:20 -12.37937 131.03933 10417 ft 328 kts 288°
2026-05-07 16:21 -12.37211 131.01771 10295 ft 315 kts 288°
2026-05-07 16:21 -12.36517 130.99696 10180 ft 302 kts 288°
2026-05-07 16:21 -12.35850 130.97698 10042 ft 292 kts 288°
2026-05-07 16:21 -12.35200 130.95756 9882 ft 284 kts 288°
2026-05-07 16:22 -12.34553 130.93825 9435 ft 291 kts 288°
2026-05-07 16:22 -12.33892 130.91852 8901 ft 295 kts 288°
2026-05-07 16:22 -12.33236 130.89898 8563 ft 293 kts 288°
2026-05-07 16:22 -12.32567 130.87911 8017 ft 293 kts 288°
2026-05-07 16:23 -12.31908 130.85955 7378 ft 291 kts 288°
2026-05-07 16:23 -12.31252 130.84011 6806 ft 287 kts 288°
2026-05-07 16:23 -12.30601 130.82088 6269 ft 286 kts 289°
2026-05-07 16:23 -12.29949 130.80162 5734 ft 286 kts 289°
2026-05-07 16:24 -12.29306 130.78259 5331 ft 277 kts 289°
2026-05-07 16:24 -12.28854 130.76386 5157 ft 269 kts 270°
2026-05-07 16:24 -12.29268 130.74561 5042 ft 263 kts 238°
2026-05-07 16:24 -12.30486 130.73192 4616 ft 265 kts 207°
2026-05-07 16:25 -12.32184 130.72541 4363 ft 257 kts 194°
2026-05-07 16:25 -12.33924 130.72046 3844 ft 261 kts 182°
2026-05-07 16:25 -12.35622 130.72396 3594 ft 247 kts 146°
2026-05-07 16:25 -12.36735 130.73660 3156 ft 237 kts 114°
2026-05-07 16:26 -12.37331 130.75193 2783 ft 226 kts 110°
2026-05-07 16:26 -12.37802 130.76684 2437 ft 214 kts 109°
2026-05-07 16:26 -12.38233 130.78110 2104 ft 206 kts 109°
2026-05-07 16:26 -12.38643 130.79451 1822 ft 187 kts 109°
2026-05-07 16:27 -12.39020 130.80655 1591 ft 167 kts 109°
2026-05-07 16:27 -12.39359 130.81720 1337 ft 147 kts 111°
2026-05-07 16:27 -12.39659 130.82672 1195 ft 136 kts 109°
2026-05-07 16:27 -12.39882 130.83596 1039 ft 132 kts 108°
2026-05-07 16:28 -12.40170 130.84488 684 ft 132 kts 113°
2026-05-07 16:28 -12.40501 130.85341 424 ft 130 kts 114°
2026-05-07 16:28 -12.40856 130.86182 236 ft 126 kts 116°
2026-05-07 16:28 -12.41127 130.87028 105 ft 120 kts 109°
2026-05-07 16:29 -12.41309 130.87616 101 ft 47 kts 105°
2026-05-07 16:29 -12.41396 130.87904 100 ft 34 kts 107°
2026-05-07 16:29 -12.41333 130.88021 98 ft 21 kts 21°
2026-05-07 16:29 -12.41191 130.88068 99 ft 22 kts 20°
2026-05-07 16:30 -12.41057 130.88071 96 ft 18 kts 304°
2026-05-07 16:30 -12.41010 130.87948 95 ft 20 kts 289°
2026-05-07 16:30 -12.40975 130.87800 97 ft 23 kts 278°
2026-05-07 16:30 -12.40950 130.87708 94 ft 1 kts 334°
2026-05-07 16:31 -12.40939 130.87718 95 ft 7 kts 37°
2026-05-07 16:31 -12.40885 130.87739 92 ft 7 kts 15°
2026-05-07 16:31 -12.40881 130.87740 92 ft 0 kts 15°